Home   Weather   Firozpur   Past weeks
Flag for India

Past Weather in Firozpur, Punjab, India — Yesterday and Last 2 Weeks

Now
81 °F

Scattered clouds.


Feels Like: 85 °F
Forecast: 89 / 74 °F
Wind: 3 mph from East

Location: Lahore Airport

Current Time: Aug 17, 2019 at 7:11:14 pm

Latest Report: Aug 17, 2019 at 5:55 pm


Visibility: 2 mi

Pressure: 29.56 "Hg

Humidity: 79%

Dew Point: 73 °F

Location of FirozpurLocation

Past Weather in Firozpur — Graph

°F

Firozpur Temperature Yesterday

Maximum temperature yesterday: 91 °F (at 11:25 am)
Minimum temperature yesterday: 77 °F (at 10:55 pm)
Average temperature yesterday: 82 °F

High & Low Weather Summary for the Past Weeks

 TemperatureHumidityPressure
High100 °F (Aug 5, 2:25 pm)94% (Aug 16, 12:55 pm)29.65 "Hg (Aug 16, 12:55 pm)
Low75 °F (Aug 17, 4:55 am)47% (Aug 12, 1:25 pm)29.36 "Hg (Aug 5, 5:25 pm)
Average87 °F71%29.51 "Hg
* Reported Aug 2 6:25 pm — Aug 17 5:55 pm, Firozpur. Weather by CustomWeather, © 2019

Note: Actual official high and low records may vary slightly from our data, if they occured in-between our weather recording intervals... More about our weather records

Advertising

Firozpur Weather History for the Previous 24 Hours

Scroll right to see more
 ConditionsComfort  
Time TempWeatherWind HumidityBarometerVisibility
5:55 pm
Sat, Aug 17
81 °FScattered clouds.3 mph79%29.56 "Hg2 mi
5:25 pm81 °FScattered clouds.5 mph79%29.56 "Hg2 mi
4:55 pm81 °FScattered clouds.9 mph84%29.56 "Hg2 mi
4:25 pm81 °FBroken clouds.17 mph84%29.56 "Hg2 mi
3:55 pm81 °FBroken clouds.13 mph84%29.56 "Hg2 mi
3:25 pm81 °FBroken clouds.10 mph84%29.56 "Hg2 mi
2:55 pm81 °FBroken clouds.14 mph84%29.56 "Hg2 mi
2:25 pm81 °FBroken clouds.21 mph84%29.56 "Hg2 mi
1:55 pm79 °FLight rain. Broken clouds.9 mph94%29.59 "Hg2 mi
1:25 pm79 °FLight rain. Broken clouds.7 mph94%29.62 "Hg2 mi
12:25 pm84 °FBroken clouds.16 mph79%29.62 "Hg3 mi
11:25 am82 °FBroken clouds.12 mph84%29.62 "Hg3 mi
10:55 am81 °FBroken clouds.13 mph89%29.62 "Hg3 mi
10:25 am81 °FBroken clouds.6 mph89%29.62 "Hg3 mi
9:55 am81 °FLight rain. Broken clouds.7 mph89%29.62 "Hg3 mi
9:25 am81 °FLight rain. Broken clouds.8 mph89%29.62 "Hg3 mi
8:55 am82 °FScattered clouds.5 mph79%29.59 "Hg3 mi
8:25 am82 °FScattered clouds.10 mph79%29.59 "Hg3 mi
7:55 am81 °FScattered clouds.6 mph74%29.59 "Hg3 mi
7:25 am79 °FScattered clouds.7 mph79%29.56 "Hg3 mi
6:55 am75 °FBroken clouds.6 mph83%29.56 "Hg2 mi
6:25 am75 °FBroken clouds.6 mph83%29.56 "Hg2 mi
5:55 am75 °FPartly cloudy.6 mph83%29.53 "Hg2 mi
5:25 am75 °FPartly cloudy.6 mph83%29.53 "Hg2 mi
4:55 am75 °FPartly cloudy.6 mph83%29.53 "Hg2 mi
4:25 am77 °FPartly cloudy.5 mph79%29.53 "Hg2 mi
3:55 am77 °FPartly cloudy.6 mph79%29.56 "Hg2 mi
3:25 am77 °FPartly cloudy.5 mph79%29.56 "Hg2 mi
2:55 am77 °FPartly cloudy.6 mph79%29.56 "Hg2 mi
2:29 am77 °FPartly cloudy.5 mph79%29.56 "Hg2 mi
2:00 am77 °FPartly cloudy.5 mph79%29.56 "Hg2 mi
1:29 am77 °FPartly cloudy.5 mph79%29.56 "Hg2 mi
12:55 am77 °FPassing clouds.5 mph79%29.56 "Hg2 mi
12:25 am77 °FPassing clouds.5 mph79%29.56 "Hg2 mi
11:29 pm
Fri, Aug 16
77 °FPassing clouds.6 mph79%29.56 "Hg2 mi
10:55 pm77 °FPassing clouds.6 mph83%29.56 "Hg2 mi
10:25 pm79 °FPassing clouds.7 mph79%29.53 "Hg2 mi
9:55 pm79 °FPassing clouds.6 mph89%29.53 "Hg2 mi
9:25 pm79 °FPassing clouds.8 mph84%29.53 "Hg2 mi
8:55 pm81 °FPassing clouds.5 mph84%29.53 "Hg2 mi
8:25 pm81 °FPassing clouds.3 mph84%29.53 "Hg2 mi
7:55 pm81 °FPassing clouds.5 mph84%29.53 "Hg2 mi
7:25 pm81 °FPassing clouds.5 mph84%29.53 "Hg2 mi
Weather by CustomWeather, © 2019

See weather overview